Time,TemperatureF,DewpointF,PressureIn,WindDirection,WindDirectionDegrees,WindSpeedMPH,WindSpeedGustMPH,Humidity,HourlyPrecipIn,Conditions,Clouds,dailyrainin,SoftwareType,DateUTC
2013-01-11 00:02:00,44.6,41.3,30.06,SSE,148,3.0,7.0,88,0.00,,SKC,0.00,VWS V14.01,2013-01-11 05:02:00,
2013-01-11 00:03:00,44.6,41.3,30.06,SE,143,3.0,7.0,88,0.00,,SKC,0.00,VWS V14.01,2013-01-11 05:03:00,
2013-01-11 00:04:00,44.7,41.4,30.06,SSE,158,4.0,7.0,88,0.00,,SKC,0.00,VWS V14.01,2013-01-11 05:04:00,
2013-01-11 00:09:00,44.6,41.3,30.06,SSE,158,4.0,8.0,88,0.00,,SKC,0.00,VWS V14.01,2013-01-11 05:09:00,
2013-01-11 00:14:00,44.8,41.5,30.06,SSE,163,1.0,8.0,88,0.00,,SKC,0.00,VWS V14.01,2013-01-11 05:14:00,
2013-01-11 00:19:00,45.0,41.7,30.05,SE,138,6.0,8.0,88,0.00,,SKC,0.00,VWS V14.01,2013-01-11 05:19:00,
2013-01-11 00:24:00,45.3,42.0,30.05,SSE,155,9.0,13.0,88,0.00,,SKC,0.00,VWS V14.01,2013-01-11 05:24:00,
2013-01-11 00:29:00,45.7,42.1,30.05,SE,129,5.0,13.0,87,0.00,,SKC,0.00,VWS V14.01,2013-01-11 05:29:00,
2013-01-11 00:34:00,45.7,42.1,30.05,SSE,147,3.0,7.0,87,0.00,,SKC,0.00,VWS V14.01,2013-01-11 05:34:00,
2013-01-11 00:39:00,45.7,42.1,30.05,SSE,158,0.0,7.0,87,0.00,,SKC,0.00,VWS V14.01,2013-01-11 05:39:00,
2013-01-11 00:44:00,45.7,42.1,30.05,SE,142,6.0,7.0,87,0.00,,SKC,0.00,VWS V14.01,2013-01-11 05:44:00,
2013-01-11 00:49:00,45.9,42.3,30.05,South,188,2.0,7.0,87,0.00,,SKC,0.00,VWS V14.01,2013-01-11 05:49:00,
2013-01-11 00:54:00,45.9,42.3,30.05,SSE,149,3.0,7.0,87,0.00,,SKC,0.00,VWS V14.01,2013-01-11 05:54:00,
2013-01-11 00:59:00,46.0,42.3,30.04,SSE,156,3.0,7.0,87,0.00,,SKC,0.00,VWS V14.01,2013-01-11 05:59:00,
2013-01-11 01:04:00,45.9,42.3,30.04,SE,145,3.0,7.0,87,0.00,,SKC,0.00,VWS V14.01,2013-01-11 06:04:00,
2013-01-11 01:10:00,46.0,42.3,30.04,SE,138,6.0,10.0,87,0.00,,SKC,0.00,VWS V14.01,2013-01-11 06:10:00,
2013-01-11 01:15:00,46.1,42.5,30.03,SE,134,6.0,10.0,87,0.00,,SKC,0.00,VWS V14.01,2013-01-11 06:15:00,
2013-01-11 01:20:00,46.1,42.5,30.03,SE,135,4.0,10.0,87,0.00,,SKC,0.00,VWS V14.01,2013-01-11 06:20:00,
2013-01-11 01:25:00,46.2,42.5,30.03,SE,127,4.0,10.0,87,0.00,,SKC,0.00,VWS V14.01,2013-01-11 06:25:00,
2013-01-11 01:30:00,46.2,42.5,30.01,SE,129,2.0,10.0,87,0.00,,SKC,0.00,VWS V14.01,2013-01-11 06:30:00,
2013-01-11 01:35:00,46.3,42.7,30.01,SE,143,3.0,11.0,87,0.00,,SKC,0.00,VWS V14.01,2013-01-11 06:35:00,
2013-01-11 01:40:00,46.4,42.8,30.01,SE,134,5.0,11.0,87,0.00,,SKC,0.00,VWS V14.01,2013-01-11 06:40:00,
2013-01-11 01:45:00,46.7,43.0,29.99,SE,124,5.0,11.0,87,0.00,,SKC,0.00,VWS V14.01,2013-01-11 06:45:00,
2013-01-11 01:50:00,46.8,43.1,29.99,SE,131,2.0,11.0,87,0.00,,SKC,0.00,VWS V14.01,2013-01-11 06:50:00,
2013-01-11 01:55:00,46.9,43.2,29.99,SSE,155,3.0,13.0,87,0.00,,SKC,0.00,VWS V14.01,2013-01-11 06:55:00,
2013-01-11 02:00:00,47.0,43.3,29.97,East,101,5.0,5.0,87,0.00,,SKC,0.00,VWS V14.01,2013-01-11 07:00:00,
2013-01-11 02:05:00,47.0,43.3,29.97,SE,138,4.0,12.0,87,0.00,,SKC,0.00,VWS V14.01,2013-01-11 07:05:00,
2013-01-11 02:11:00,47.1,43.4,29.97,SE,143,5.0,12.0,87,0.00,,SKC,0.00,VWS V14.01,2013-01-11 07:11:00,
2013-01-11 02:16:00,47.1,43.4,29.97,SSE,148,4.0,12.0,87,0.00,,SKC,0.00,VWS V14.01,2013-01-11 07:16:00,
2013-01-11 02:21:00,47.3,43.6,29.97,SSE,153,6.0,12.0,87,0.00,,SKC,0.00,VWS V14.01,2013-01-11 07:21:00,
2013-01-11 02:26:00,47.4,43.7,29.97,SSE,167,4.0,12.0,87,0.00,,SKC,0.00,VWS V14.01,2013-01-11 07:26:00,
2013-01-11 02:31:00,47.6,44.2,29.96,SSE,159,5.0,9.0,88,0.00,,SKC,0.00,VWS V14.01,2013-01-11 07:31:00,
2013-01-11 02:36:00,47.9,44.5,29.96,SE,124,3.0,10.0,88,0.00,,SKC,0.00,VWS V14.01,2013-01-11 07:36:00,
2013-01-11 02:41:00,48.1,44.4,29.96,SSE,149,2.0,11.0,87,0.00,,SKC,0.00,VWS V14.01,2013-01-11 07:41:00,
2013-01-11 02:46:00,48.0,44.3,29.96,East,89,3.0,11.0,87,0.00,,SKC,0.00,VWS V14.01,2013-01-11 07:46:00,
2013-01-11 02:51:00,48.0,44.6,29.96,SE,141,2.0,11.0,88,0.00,,SKC,0.00,VWS V14.01,2013-01-11 07:51:00,
2013-01-11 02:57:00,48.0,44.6,29.96,SE,143,5.0,11.0,88,0.00,,SKC,0.00,VWS V14.01,2013-01-11 07:57:00,
2013-01-11 03:02:00,48.1,45.0,29.95,SE,125,4.0,5.0,89,0.01,,SKC,0.01,VWS V14.01,2013-01-11 08:02:00,
2013-01-11 03:07:00,47.9,44.8,29.95,SE,132,2.0,5.0,89,0.01,,SKC,0.01,VWS V14.01,2013-01-11 08:07:00,
2013-01-11 03:12:00,47.7,44.9,29.95,SE,139,3.0,5.0,90,0.01,,SKC,0.01,VWS V14.01,2013-01-11 08:12:00,
2013-01-11 03:17:00,47.8,45.3,29.95,SSE,153,1.0,5.0,91,0.01,,SKC,0.01,VWS V14.01,2013-01-11 08:17:00,
2013-01-11 03:22:00,47.9,45.4,29.95,SE,142,1.0,5.0,91,0.02,,SKC,0.02,VWS V14.01,2013-01-11 08:22:00,
2013-01-11 03:27:00,47.9,45.4,29.95,SE,133,4.0,5.0,91,0.04,,SKC,0.04,VWS V14.01,2013-01-11 08:27:00,
2013-01-11 03:32:00,48.1,45.9,29.94,ESE,120,3.0,5.0,92,0.06,,SKC,0.06,VWS V14.01,2013-01-11 08:32:00,
2013-01-11 03:37:00,48.1,45.9,29.94,South,170,2.0,7.0,92,0.08,,SKC,0.08,VWS V14.01,2013-01-11 08:37:00,
2013-01-11 03:42:00,48.2,46.0,29.94,SSE,156,3.0,7.0,92,0.10,,SKC,0.10,VWS V14.01,2013-01-11 08:42:00,
2013-01-11 03:48:00,48.3,46.4,29.94,SSE,148,5.0,10.0,93,0.14,,SKC,0.14,VWS V14.01,2013-01-11 08:48:00,
2013-01-11 03:53:00,48.3,46.7,29.94,SE,137,2.0,10.0,94,0.27,,SKC,0.27,VWS V14.01,2013-01-11 08:53:00,
2013-01-11 03:58:00,48.3,46.7,29.94,SE,127,0.0,10.0,94,0.36,,SKC,0.36,VWS V14.01,2013-01-11 08:58:00,
2013-01-11 04:03:00,48.3,46.7,29.92,SE,140,1.0,1.0,94,0.40,,SKC,0.41,VWS V14.01,2013-01-11 09:03:00,
2013-01-11 04:08:00,48.3,46.9,29.92,ESE,120,5.0,7.0,95,0.49,,SKC,0.50,VWS V14.01,2013-01-11 09:08:00,
2013-01-11 04:13:00,48.5,47.1,29.92,SSE,150,1.0,11.0,95,0.52,,SKC,0.53,VWS V14.01,2013-01-11 09:13:00,
2013-01-11 04:18:00,48.5,47.1,29.91,WSW,238,3.0,11.0,95,0.58,,SKC,0.59,VWS V14.01,2013-01-11 09:18:00,
2013-01-11 04:23:00,48.5,47.1,29.91,WSW,249,1.0,11.0,95,0.61,,SKC,0.62,VWS V14.01,2013-01-11 09:23:00,
2013-01-11 04:28:00,48.3,46.9,29.91,WNW,300,1.0,11.0,95,0.62,,SKC,0.63,VWS V14.01,2013-01-11 09:28:00,
2013-01-11 04:34:00,48.4,47.0,29.92,SE,127,2.0,6.0,95,0.60,,SKC,0.65,VWS V14.01,2013-01-11 09:34:00,
2013-01-11 04:39:00,49.0,48.2,29.92,South,174,3.0,6.0,97,0.62,,SKC,0.67,VWS V14.01,2013-01-11 09:39:00,
2013-01-11 04:44:00,49.7,48.9,29.92,SSW,195,3.0,6.0,97,0.66,,SKC,0.71,VWS V14.01,2013-01-11 09:44:00,
2013-01-11 04:49:00,50.1,49.3,29.95,SSW,198,2.0,6.0,97,0.68,,SKC,0.73,VWS V14.01,2013-01-11 09:49:00,
2013-01-11 04:54:00,50.9,50.1,29.95,SSE,158,2.0,6.0,97,0.69,,SKC,0.74,VWS V14.01,2013-01-11 09:54:00,
2013-01-11 04:59:00,51.3,50.5,29.95,SSE,149,3.0,9.0,97,0.70,,SKC,0.75,VWS V14.01,2013-01-11 09:59:00,
2013-01-11 05:04:00,51.9,50.8,29.92,SSE,147,2.0,7.0,96,0.37,,SKC,0.75,VWS V14.01,2013-01-11 10:04:00,
2013-01-11 05:09:00,52.2,50.5,29.92,SSW,208,1.0,7.0,94,0.37,,SKC,0.75,VWS V14.01,2013-01-11 10:09:00,
2013-01-11 05:14:00,52.2,50.2,29.92,SE,142,2.0,7.0,93,0.37,,SKC,0.75,VWS V14.01,2013-01-11 10:14:00,
2013-01-11 05:19:00,52.0,50.0,29.92,SSE,150,3.0,7.0,93,0.38,,SKC,0.76,VWS V14.01,2013-01-11 10:19:00,
2013-01-11 05:24:00,51.7,49.8,29.92,ESE,103,2.0,9.0,93,0.39,,SKC,0.77,VWS V14.01,2013-01-11 10:24:00,
2013-01-11 05:29:00,51.5,49.5,29.89,SE,133,4.0,9.0,93,0.42,,SKC,0.80,VWS V14.01,2013-01-11 10:29:00,
2013-01-11 05:35:00,51.5,49.8,29.89,SE,143,3.0,10.0,94,0.19,,SKC,0.82,VWS V14.01,2013-01-11 10:35:00,
2013-01-11 05:40:00,51.4,49.7,29.89,East,90,3.0,10.0,94,0.20,,SKC,0.83,VWS V14.01,2013-01-11 10:40:00,
2013-01-11 05:45:00,51.3,49.6,29.87,SSE,158,2.0,10.0,94,0.21,,SKC,0.84,VWS V14.01,2013-01-11 10:45:00,
2013-01-11 05:50:00,51.2,49.5,29.87,ESE,108,1.0,10.0,94,0.21,,SKC,0.84,VWS V14.01,2013-01-11 10:50:00,
2013-01-11 05:55:00,51.1,49.7,29.87,SE,146,3.0,10.0,95,0.21,,SKC,0.84,VWS V14.01,2013-01-11 10:55:00,
2013-01-11 06:00:00,51.0,49.6,29.87,SE,141,6.0,10.0,95,0.21,,SKC,0.84,VWS V14.01,2013-01-11 11:00:00,
2013-01-11 06:05:00,51.2,49.8,29.87,SE,134,6.0,10.0,95,0.09,,SKC,0.84,VWS V14.01,2013-01-11 11:05:00,
2013-01-11 06:10:00,51.4,50.0,29.87,SE,139,9.0,14.0,95,0.11,,SKC,0.86,VWS V14.01,2013-01-11 11:10:00,
2013-01-11 06:15:00,51.6,50.2,29.88,SE,129,9.0,14.0,95,0.12,,SKC,0.87,VWS V14.01,2013-01-11 11:15:00,
2013-01-11 06:20:00,51.6,50.2,29.88,SE,131,4.0,14.0,95,0.15,,SKC,0.90,VWS V14.01,2013-01-11 11:20:00,
2013-01-11 06:25:00,51.8,50.4,29.88,SSE,150,5.0,14.0,95,0.16,,SKC,0.91,VWS V14.01,2013-01-11 11:25:00,
2013-01-11 06:30:00,51.8,50.4,29.84,SSE,160,4.0,14.0,95,0.17,,SKC,0.92,VWS V14.01,2013-01-11 11:30:00,
2013-01-11 06:35:00,51.6,50.2,29.84,SE,141,4.0,5.0,95,0.13,,SKC,0.93,VWS V14.01,2013-01-11 11:35:00,
2013-01-11 06:40:00,51.7,50.3,29.84,SSE,150,6.0,7.0,95,0.13,,SKC,0.93,VWS V14.01,2013-01-11 11:40:00,
2013-01-11 06:45:00,51.9,50.8,29.83,SSE,158,7.0,12.0,96,0.13,,SKC,0.93,VWS V14.01,2013-01-11 11:45:00,
2013-01-11 06:50:00,52.1,50.7,29.83,East,93,6.0,12.0,95,0.13,,SKC,0.93,VWS V14.01,2013-01-11 11:50:00,
2013-01-11 06:55:00,52.2,50.8,29.83,SE,142,3.0,12.0,95,0.13,,SKC,0.93,VWS V14.01,2013-01-11 11:55:00,
2013-01-11 07:01:00,52.3,50.9,29.84,SE,135,6.0,6.0,95,0.09,,SKC,0.93,VWS V14.01,2013-01-11 12:01:00,
2013-01-11 07:06:00,52.3,50.9,29.84,SSE,168,7.0,10.0,95,0.09,,SKC,0.93,VWS V14.01,2013-01-11 12:06:00,
2013-01-11 07:11:00,52.4,51.0,29.84,SE,129,6.0,11.0,95,0.09,,SKC,0.93,VWS V14.01,2013-01-11 12:11:00,
2013-01-11 07:16:00,52.4,51.0,29.84,SE,145,6.0,11.0,95,0.09,,SKC,0.93,VWS V14.01,2013-01-11 12:16:00,
2013-01-11 07:21:00,52.4,51.0,29.84,SSE,159,3.0,11.0,95,0.09,,SKC,0.93,VWS V14.01,2013-01-11 12:21:00,
2013-01-11 07:26:00,52.4,51.0,29.84,SE,125,3.0,11.0,95,0.09,,SKC,0.93,VWS V14.01,2013-01-11 12:26:00,
2013-01-11 07:31:00,52.3,50.9,29.85,SE,129,2.0,5.0,95,0.01,,SKC,0.93,VWS V14.01,2013-01-11 12:31:00,
2013-01-11 07:36:00,52.4,51.3,29.85,SSE,153,2.0,9.0,96,0.01,,SKC,0.93,VWS V14.01,2013-01-11 12:36:00,
2013-01-11 07:41:00,52.4,51.3,29.85,SE,141,4.0,9.0,96,0.01,,SKC,0.93,VWS V14.01,2013-01-11 12:41:00,
2013-01-11 07:46:00,52.4,51.3,29.86,SSE,158,4.0,9.0,96,0.01,,SKC,0.93,VWS V14.01,2013-01-11 12:46:00,
2013-01-11 07:51:00,52.5,51.4,29.86,SSE,155,1.0,9.0,96,0.01,,SKC,0.93,VWS V14.01,2013-01-11 12:51:00,
2013-01-11 07:56:00,52.6,51.5,29.86,SSE,150,3.0,9.0,96,0.01,,SKC,0.93,VWS V14.01,2013-01-11 12:56:00,
2013-01-11 08:01:00,52.8,51.7,29.85,SSE,150,2.0,4.0,96,0.00,,SKC,0.93,VWS V14.01,2013-01-11 13:01:00,
2013-01-11 08:06:00,52.8,51.7,29.85,SSE,159,2.0,6.0,96,0.00,,SKC,0.93,VWS V14.01,2013-01-11 13:06:00,
2013-01-11 08:11:00,52.9,51.8,29.85,SSE,155,3.0,9.0,96,0.00,,SKC,0.93,VWS V14.01,2013-01-11 13:11:00,
2013-01-11 08:17:00,52.6,51.2,29.86,SSE,148,3.0,9.0,95,0.00,,SKC,0.93,VWS V14.01,2013-01-11 13:17:00,
2013-01-11 08:22:00,52.5,51.4,29.86,SSE,156,2.0,9.0,96,0.00,,SKC,0.93,VWS V14.01,2013-01-11 13:22:00,
2013-01-11 08:27:00,52.6,51.5,29.86,SE,143,2.0,9.0,96,0.00,,SKC,0.93,VWS V14.01,2013-01-11 13:27:00,
2013-01-11 08:32:00,52.7,51.6,29.87,SE,142,2.0,4.0,96,0.00,,SKC,0.93,VWS V14.01,2013-01-11 13:32:00,
2013-01-11 08:37:00,52.9,51.8,29.87,SE,146,3.0,5.0,96,0.00,,SKC,0.93,VWS V14.01,2013-01-11 13:37:00,
2013-01-11 08:42:00,52.9,51.8,29.87,SSE,159,3.0,5.0,96,0.00,,SKC,0.93,VWS V14.01,2013-01-11 13:42:00,
2013-01-11 08:47:00,53.1,52.0,29.87,WSW,239,1.0,5.0,96,0.00,,SKC,0.93,VWS V14.01,2013-01-11 13:47:00,
2013-01-11 08:52:00,53.3,52.2,29.87,SE,139,3.0,5.0,96,0.00,,SKC,0.93,VWS V14.01,2013-01-11 13:52:00,
2013-01-11 08:57:00,53.4,52.0,29.87,SE,127,5.0,6.0,95,0.00,,SKC,0.93,VWS V14.01,2013-01-11 13:57:00,
2013-01-11 09:02:00,53.6,52.2,29.88,SE,139,5.0,5.0,95,0.00,,SKC,0.93,VWS V14.01,2013-01-11 14:02:00,
2013-01-11 09:08:00,53.7,52.3,29.88,SE,146,3.0,5.0,95,0.00,,SKC,0.93,VWS V14.01,2013-01-11 14:08:00,
2013-01-11 09:13:00,53.9,52.5,29.88,SSW,208,2.0,6.0,95,0.00,,SKC,0.93,VWS V14.01,2013-01-11 14:13:00,
2013-01-11 09:18:00,54.1,52.7,29.88,SSE,157,0.0,9.0,95,0.00,,SKC,0.93,VWS V14.01,2013-01-11 14:18:00,
2013-01-11 09:23:00,54.2,52.5,29.88,SSW,208,4.0,9.0,94,0.00,,SKC,0.93,VWS V14.01,2013-01-11 14:23:00,
2013-01-11 09:28:00,54.3,52.6,29.88,South,174,3.0,9.0,94,0.00,,SKC,0.93,VWS V14.01,2013-01-11 14:28:00,
2013-01-11 09:33:00,54.4,52.7,29.88,SSE,162,2.0,6.0,94,0.00,,SKC,0.93,VWS V14.01,2013-01-11 14:33:00,
2013-01-11 09:38:00,54.4,52.7,29.88,South,183,2.0,6.0,94,0.00,,SKC,0.93,VWS V14.01,2013-01-11 14:38:00,
2013-01-11 09:43:00,54.5,52.8,29.88,SSW,211,3.0,9.0,94,0.00,,SKC,0.93,VWS V14.01,2013-01-11 14:43:00,
2013-01-11 09:48:00,54.6,52.6,29.88,SSW,194,3.0,10.0,93,0.00,,SKC,0.93,VWS V14.01,2013-01-11 14:48:00,
2013-01-11 09:53:00,54.7,52.7,29.88,SW,229,3.0,10.0,93,0.00,,SKC,0.93,VWS V14.01,2013-01-11 14:53:00,
2013-01-11 09:58:00,54.7,52.7,29.88,SE,140,6.0,10.0,93,0.00,,SKC,0.93,VWS V14.01,2013-01-11 14:58:00,
2013-01-11 10:03:00,54.7,52.7,29.88,SE,146,2.0,6.0,93,0.00,,SKC,0.93,VWS V14.01,2013-01-11 15:03:00,
2013-01-11 10:08:00,54.9,52.9,29.88,SW,225,5.0,6.0,93,0.00,,SKC,0.93,VWS V14.01,2013-01-11 15:08:00,
2013-01-11 10:14:00,55.1,53.1,29.88,SE,146,2.0,12.0,93,0.00,,SKC,0.93,VWS V14.01,2013-01-11 15:14:00,
2013-01-11 10:19:00,55.3,53.0,29.88,SSW,208,3.0,12.0,92,0.00,,SKC,0.93,VWS V14.01,2013-01-11 15:19:00,
2013-01-11 10:24:00,55.3,53.0,29.88,SE,142,5.0,12.0,92,0.00,,SKC,0.93,VWS V14.01,2013-01-11 15:24:00,
2013-01-11 10:29:00,55.4,52.8,29.88,SE,131,4.0,12.0,91,0.00,,SKC,0.93,VWS V14.01,2013-01-11 15:29:00,
2013-01-11 10:34:00,55.4,52.5,29.89,SSW,212,4.0,11.0,90,0.00,,SKC,0.93,VWS V14.01,2013-01-11 15:34:00,
2013-01-11 10:39:00,55.5,52.6,29.89,South,184,3.0,11.0,90,0.00,,SKC,0.93,VWS V14.01,2013-01-11 15:39:00,
2013-01-11 10:44:00,55.7,52.5,29.89,SE,136,4.0,11.0,89,0.00,,SKC,0.93,VWS V14.01,2013-01-11 15:44:00,
2013-01-11 10:49:00,55.8,52.3,29.89,South,175,3.0,11.0,88,0.00,,SKC,0.93,VWS V14.01,2013-01-11 15:49:00,
2013-01-11 10:55:00,56.0,52.5,29.89,SE,141,3.0,11.0,88,0.00,,SKC,0.93,VWS V14.01,2013-01-11 15:55:00,
2013-01-11 11:00:00,56.2,52.4,29.89,South,191,4.0,11.0,87,0.00,,SKC,0.93,VWS V14.01,2013-01-11 16:00:00,
2013-01-11 11:05:00,56.3,52.2,29.89,SE,143,1.0,6.0,86,0.00,,SKC,0.93,VWS V14.01,2013-01-11 16:05:00,
2013-01-11 11:10:00,56.7,51.9,29.89,SSW,203,3.0,6.0,84,0.00,,SKC,0.93,VWS V14.01,2013-01-11 16:10:00,
2013-01-11 11:15:00,57.0,52.2,29.89,SSW,211,2.0,7.0,84,0.00,,SKC,0.93,VWS V14.01,2013-01-11 16:15:00,
2013-01-11 11:20:00,57.3,52.2,29.89,South,186,4.0,9.0,83,0.00,,SKC,0.93,VWS V14.01,2013-01-11 16:20:00,
2013-01-11 11:25:00,57.3,51.9,29.89,WSW,255,5.0,9.0,82,0.00,,SKC,0.93,VWS V14.01,2013-01-11 16:25:00,
2013-01-11 11:30:00,57.2,51.4,29.89,SE,127,6.0,11.0,81,0.00,,SKC,0.93,VWS V14.01,2013-01-11 16:30:00,
2013-01-11 11:35:00,57.3,51.5,29.89,SW,218,5.0,11.0,81,0.00,,SKC,0.93,VWS V14.01,2013-01-11 16:35:00,
2013-01-11 11:41:00,57.2,50.8,29.89,SSE,165,4.0,12.0,79,0.00,,SKC,0.93,VWS V14.01,2013-01-11 16:41:00,
2013-01-11 11:46:00,57.0,50.6,29.89,West,273,5.0,12.0,79,0.00,,SKC,0.93,VWS V14.01,2013-01-11 16:46:00,
2013-01-11 11:51:00,56.8,50.7,29.89,SSW,212,2.0,12.0,80,0.00,,SKC,0.93,VWS V14.01,2013-01-11 16:51:00,
2013-01-11 11:56:00,56.7,50.6,29.89,SE,134,1.0,12.0,80,0.00,,SKC,0.93,VWS V14.01,2013-01-11 16:56:00,
2013-01-11 12:01:00,56.6,50.5,29.88,South,169,1.0,6.0,80,0.00,,SKC,0.93,VWS V14.01,2013-01-11 17:01:00,
2013-01-11 12:06:00,56.4,50.0,29.88,SSW,197,9.0,9.0,79,0.00,,SKC,0.93,VWS V14.01,2013-01-11 17:06:00,
2013-01-11 12:11:00,56.2,50.1,29.88,SW,225,15.0,15.0,80,0.00,,SKC,0.93,VWS V14.01,2013-01-11 17:11:00,
2013-01-11 12:16:00,56.0,49.6,29.88,SW,218,5.0,15.0,79,0.00,,SKC,0.93,VWS V14.01,2013-01-11 17:16:00,
2013-01-11 12:21:00,55.9,49.8,29.88,SSW,205,3.0,15.0,80,0.00,,SKC,0.93,VWS V14.01,2013-01-11 17:21:00,
2013-01-11 12:26:00,55.9,50.2,29.88,SE,145,1.0,15.0,81,0.00,,SKC,0.93,VWS V14.01,2013-01-11 17:26:00,
2013-01-11 12:32:00,55.9,50.2,29.88,SSW,204,6.0,9.0,81,0.00,,SKC,0.93,VWS V14.01,2013-01-11 17:32:00,
2013-01-11 12:37:00,56.0,49.9,29.88,SSE,158,2.0,9.0,80,0.00,,SKC,0.93,VWS V14.01,2013-01-11 17:37:00,
2013-01-11 12:42:00,56.3,49.9,29.88,SSE,156,4.0,12.0,79,0.00,,SKC,0.93,VWS V14.01,2013-01-11 17:42:00,
2013-01-11 12:47:00,56.6,50.2,29.87,South,190,3.0,12.0,79,0.00,,SKC,0.93,VWS V14.01,2013-01-11 17:47:00,
2013-01-11 12:52:00,56.9,50.5,29.87,South,177,5.0,12.0,79,0.00,,SKC,0.93,VWS V14.01,2013-01-11 17:52:00,
2013-01-11 12:57:00,57.1,50.3,29.87,SSE,166,4.0,12.0,78,0.00,,SKC,0.93,VWS V14.01,2013-01-11 17:57:00,
2013-01-11 13:02:00,57.0,49.9,29.88,SSW,203,3.0,7.0,77,0.00,,SKC,0.93,VWS V14.01,2013-01-11 18:02:00,
2013-01-11 13:07:00,57.0,50.2,29.88,SSE,159,2.0,10.0,78,0.00,,SKC,0.93,VWS V14.01,2013-01-11 18:07:00,
2013-01-11 13:12:00,57.1,50.3,29.88,SE,138,6.0,11.0,78,0.00,,SKC,0.93,VWS V14.01,2013-01-11 18:12:00,
2013-01-11 13:18:00,57.4,50.3,29.88,SW,229,2.0,11.0,77,0.00,,SKC,0.93,VWS V14.01,2013-01-11 18:18:00,
2013-01-11 13:23:00,57.5,49.7,29.88,SSW,204,4.0,11.0,75,0.00,,SKC,0.93,VWS V14.01,2013-01-11 18:23:00,
2013-01-11 13:28:00,57.8,49.6,29.88,SE,143,6.0,11.0,74,0.00,,SKC,0.93,VWS V14.01,2013-01-11 18:28:00,
2013-01-11 13:33:00,57.5,48.9,29.87,SE,138,6.0,13.0,73,0.00,,SKC,0.93,VWS V14.01,2013-01-11 18:33:00,
2013-01-11 13:38:00,57.4,49.2,29.87,SE,143,7.0,13.0,74,0.00,,SKC,0.93,VWS V14.01,2013-01-11 18:38:00,
2013-01-11 13:43:00,57.4,49.2,29.87,SSW,205,5.0,13.0,74,0.00,,SKC,0.93,VWS V14.01,2013-01-11 18:43:00,
2013-01-11 13:48:00,57.4,49.9,29.87,SE,139,5.0,13.0,76,0.00,,SKC,0.93,VWS V14.01,2013-01-11 18:48:00,
2013-01-11 13:53:00,57.4,49.5,29.87,South,188,7.0,13.0,75,0.00,,SKC,0.93,VWS V14.01,2013-01-11 18:53:00,
2013-01-11 13:58:00,57.1,49.6,29.87,East,101,4.0,13.0,76,0.00,,SKC,0.93,VWS V14.01,2013-01-11 18:58:00,
2013-01-11 14:03:00,57.2,49.4,29.87,SSW,204,2.0,6.0,75,0.00,,SKC,0.93,VWS V14.01,2013-01-11 19:03:00,
2013-01-11 14:09:00,57.4,49.5,29.87,SW,217,4.0,9.0,75,0.00,,SKC,0.93,VWS V14.01,2013-01-11 19:09:00,
2013-01-11 14:14:00,57.5,49.7,29.87,SSW,203,4.0,9.0,75,0.00,,SKC,0.93,VWS V14.01,2013-01-11 19:14:00,
2013-01-11 14:19:00,57.5,49.3,29.87,South,190,6.0,13.0,74,0.00,,SKC,0.93,VWS V14.01,2013-01-11 19:19:00,
2013-01-11 14:24:00,57.6,49.4,29.87,SSW,201,5.0,13.0,74,0.00,,SKC,0.93,VWS V14.01,2013-01-11 19:24:00,
2013-01-11 14:29:00,57.7,49.1,29.87,SSE,163,3.0,13.0,73,0.00,,SKC,0.93,VWS V14.01,2013-01-11 19:29:00,
2013-01-11 14:34:00,57.6,49.0,29.87,SE,124,3.0,12.0,73,0.00,,SKC,0.93,VWS V14.01,2013-01-11 19:34:00,
2013-01-11 14:39:00,57.7,48.8,29.87,South,190,5.0,12.0,72,0.00,,SKC,0.93,VWS V14.01,2013-01-11 19:39:00,
2013-01-11 14:44:00,58.2,48.8,29.87,SSE,156,4.0,12.0,71,0.00,,SKC,0.93,VWS V14.01,2013-01-11 19:44:00,
2013-01-11 14:50:00,58.2,48.1,29.87,SSW,212,3.0,13.0,69,0.00,,SKC,0.93,VWS V14.01,2013-01-11 19:50:00,
2013-01-11 14:55:00,58.1,48.8,29.87,SSE,148,4.0,13.0,71,0.00,,SKC,0.93,VWS V14.01,2013-01-11 19:55:00,
2013-01-11 15:00:00,58.0,48.7,29.87,SW,229,4.0,13.0,71,0.00,,SKC,0.93,VWS V14.01,2013-01-11 20:00:00,
2013-01-11 15:05:00,58.0,48.7,29.87,SSW,205,3.0,4.0,71,0.00,,SKC,0.93,VWS V14.01,2013-01-11 20:05:00,
2013-01-11 15:10:00,57.9,48.9,29.87,SSE,155,6.0,15.0,72,0.00,,SKC,0.93,VWS V14.01,2013-01-11 20:10:00,
2013-01-11 15:15:00,57.7,48.8,29.88,SSW,208,5.0,15.0,72,0.00,,SKC,0.93,VWS V14.01,2013-01-11 20:15:00,
2013-01-11 15:20:00,57.6,48.7,29.88,SSW,203,3.0,15.0,72,0.00,,SKC,0.93,VWS V14.01,2013-01-11 20:20:00,
2013-01-11 15:25:00,57.5,48.9,29.88,SSE,162,3.0,15.0,73,0.00,,SKC,0.93,VWS V14.01,2013-01-11 20:25:00,
2013-01-11 15:30:00,57.6,49.4,29.89,SE,135,4.0,15.0,74,0.00,,SKC,0.93,VWS V14.01,2013-01-11 20:30:00,
2013-01-11 15:35:00,57.7,49.1,29.89,SE,143,3.0,7.0,73,0.00,,SKC,0.93,VWS V14.01,2013-01-11 20:35:00,
2013-01-11 15:40:00,57.7,49.5,29.89,SSE,165,3.0,7.0,74,0.00,,SKC,0.93,VWS V14.01,2013-01-11 20:40:00,
2013-01-11 15:45:00,57.6,49.0,29.89,SSE,152,6.0,9.0,73,0.00,,SKC,0.93,VWS V14.01,2013-01-11 20:45:00,
2013-01-11 15:50:00,57.7,49.1,29.89,SE,124,5.0,9.0,73,0.00,,SKC,0.93,VWS V14.01,2013-01-11 20:50:00,
2013-01-11 15:55:00,57.9,48.9,29.89,SSW,203,6.0,10.0,72,0.00,,SKC,0.93,VWS V14.01,2013-01-11 20:55:00,
2013-01-11 16:01:00,57.9,48.9,29.88,South,172,3.0,3.0,72,0.00,,SKC,0.93,VWS V14.01,2013-01-11 21:01:00,
2013-01-11 16:06:00,57.8,48.8,29.88,South,186,2.0,6.0,72,0.00,,SKC,0.93,VWS V14.01,2013-01-11 21:06:00,
2013-01-11 16:11:00,57.8,49.2,29.88,SSE,160,1.0,6.0,73,0.00,,SKC,0.93,VWS V14.01,2013-01-11 21:11:00,
2013-01-11 16:16:00,57.9,48.9,29.88,SSE,155,4.0,7.0,72,0.00,,SKC,0.93,VWS V14.01,2013-01-11 21:16:00,
2013-01-11 16:21:00,57.8,48.5,29.88,ESE,117,0.0,7.0,71,0.00,,SKC,0.93,VWS V14.01,2013-01-11 21:21:00,
2013-01-11 16:26:00,57.8,48.8,29.88,South,172,3.0,7.0,72,0.00,,SKC,0.93,VWS V14.01,2013-01-11 21:26:00,
2013-01-11 16:31:00,57.8,48.5,29.89,SE,145,3.0,4.0,71,0.00,,SKC,0.93,VWS V14.01,2013-01-11 21:31:00,
2013-01-11 16:36:00,57.6,48.3,29.89,SSE,150,2.0,6.0,71,0.00,,SKC,0.93,VWS V14.01,2013-01-11 21:36:00,
2013-01-11 16:41:00,57.6,48.3,29.89,SE,133,0.0,6.0,71,0.00,,SKC,0.93,VWS V14.01,2013-01-11 21:41:00,
2013-01-11 16:46:00,57.5,48.6,29.88,SSE,160,2.0,6.0,72,0.00,,SKC,0.93,VWS V14.01,2013-01-11 21:46:00,
2013-01-11 16:52:00,57.3,48.0,29.88,SSE,159,4.0,6.0,71,0.00,,SKC,0.93,VWS V14.01,2013-01-11 21:52:00,
2013-01-11 16:57:00,57.1,47.8,29.88,SSW,195,1.0,6.0,71,0.00,,SKC,0.93,VWS V14.01,2013-01-11 21:57:00,
2013-01-11 17:02:00,56.8,47.9,29.88,West,264,2.0,3.0,72,0.00,,SKC,0.93,VWS V14.01,2013-01-11 22:02:00,
2013-01-11 17:07:00,56.6,47.7,29.88,SE,141,2.0,6.0,72,0.00,,SKC,0.93,VWS V14.01,2013-01-11 22:07:00,
2013-01-11 17:12:00,56.2,47.7,29.88,SSW,204,1.0,6.0,73,0.00,,SKC,0.93,VWS V14.01,2013-01-11 22:12:00,
2013-01-11 17:17:00,56.0,47.8,29.89,South,174,1.0,6.0,74,0.00,,SKC,0.93,VWS V14.01,2013-01-11 22:17:00,
2013-01-11 17:22:00,55.7,47.5,29.89,SE,144,1.0,6.0,74,0.00,,SKC,0.93,VWS V14.01,2013-01-11 22:22:00,
2013-01-11 17:27:00,55.4,47.6,29.89,SSW,207,1.0,7.0,75,0.00,,SKC,0.93,VWS V14.01,2013-01-11 22:27:00,
2013-01-11 17:32:00,55.4,47.6,29.89,SSW,201,3.0,7.0,75,0.00,,SKC,0.93,VWS V14.01,2013-01-11 22:32:00,
2013-01-11 17:37:00,55.3,47.9,29.89,SSE,153,0.0,7.0,76,0.00,,SKC,0.93,VWS V14.01,2013-01-11 22:37:00,
2013-01-11 17:42:00,55.0,47.6,29.89,SSE,167,0.0,7.0,76,0.00,,SKC,0.93,VWS V14.01,2013-01-11 22:42:00,
2013-01-11 17:47:00,54.5,47.5,29.90,SSE,150,0.0,7.0,77,0.00,,SKC,0.93,VWS V14.01,2013-01-11 22:47:00,
2013-01-11 17:52:00,54.2,47.5,29.90,SSE,150,0.0,7.0,78,0.00,,SKC,0.93,VWS V14.01,2013-01-11 22:52:00,
2013-01-11 17:57:00,54.0,47.6,29.90,SSE,152,1.0,7.0,79,0.00,,SKC,0.93,VWS V14.01,2013-01-11 22:57:00,
2013-01-11 18:03:00,53.9,47.5,29.90,SSE,150,2.0,3.0,79,0.00,,SKC,0.93,VWS V14.01,2013-01-11 23:03:00,
2013-01-11 18:08:00,53.7,47.3,29.90,SE,146,1.0,3.0,79,0.00,,SKC,0.93,VWS V14.01,2013-01-11 23:08:00,
2013-01-11 18:13:00,53.4,47.4,29.90,SE,146,0.0,3.0,80,0.00,,SKC,0.93,VWS V14.01,2013-01-11 23:13:00,
2013-01-11 18:18:00,53.1,47.4,29.89,SE,142,2.0,3.0,81,0.00,,SKC,0.93,VWS V14.01,2013-01-11 23:18:00,
2013-01-11 18:23:00,53.0,47.3,29.89,SE,139,1.0,3.0,81,0.00,,SKC,0.93,VWS V14.01,2013-01-11 23:23:00,
2013-01-11 18:28:00,52.6,47.3,29.89,SE,139,0.0,3.0,82,0.00,,SKC,0.93,VWS V14.01,2013-01-11 23:28:00,
2013-01-11 18:33:00,52.2,46.9,29.90,SE,140,0.0,0.0,82,0.00,,SKC,0.93,VWS V14.01,2013-01-11 23:33:00,
2013-01-11 18:38:00,52.1,47.1,29.90,SE,145,1.0,2.0,83,0.00,,SKC,0.93,VWS V14.01,2013-01-11 23:38:00,
2013-01-11 18:43:00,52.1,47.1,29.90,SE,142,1.0,4.0,83,0.00,,SKC,0.93,VWS V14.01,2013-01-11 23:43:00,
2013-01-11 18:48:00,52.1,47.1,29.89,SE,139,2.0,4.0,83,0.00,,SKC,0.93,VWS V14.01,2013-01-11 23:48:00,
2013-01-11 18:53:00,52.1,47.4,29.89,SSE,148,1.0,4.0,84,0.00,,SKC,0.93,VWS V14.01,2013-01-11 23:53:00,
2013-01-11 18:58:00,52.2,47.5,29.89,SE,141,2.0,4.0,84,0.00,,SKC,0.93,VWS V14.01,2013-01-11 23:58:00,
2013-01-11 19:04:00,52.3,47.6,29.91,SE,146,2.0,2.0,84,0.00,,SKC,0.93,VWS V14.01,2013-01-12 00:04:00,
2013-01-11 19:09:00,52.3,47.6,29.91,SSE,150,3.0,4.0,84,0.00,,SKC,0.93,VWS V14.01,2013-01-12 00:09:00,
2013-01-11 19:14:00,52.7,47.7,29.91,SE,145,5.0,5.0,83,0.00,,SKC,0.93,VWS V14.01,2013-01-12 00:14:00,
2013-01-11 19:19:00,53.0,48.0,29.90,South,176,2.0,5.0,83,0.00,,SKC,0.93,VWS V14.01,2013-01-12 00:19:00,
2013-01-11 19:24:00,53.1,47.8,29.90,SSE,163,2.0,5.0,82,0.00,,SKC,0.93,VWS V14.01,2013-01-12 00:24:00,
2013-01-11 19:29:00,53.1,47.8,29.90,SSE,149,2.0,5.0,82,0.00,,SKC,0.93,VWS V14.01,2013-01-12 00:29:00,
2013-01-11 19:34:00,53.1,47.8,29.89,ESE,121,2.0,3.0,82,0.00,,SKC,0.93,VWS V14.01,2013-01-12 00:34:00,
2013-01-11 19:39:00,52.9,47.9,29.89,SSE,150,2.0,3.0,83,0.00,,SKC,0.93,VWS V14.01,2013-01-12 00:39:00,
2013-01-11 19:44:00,53.0,47.7,29.89,SE,138,1.0,4.0,82,0.00,,SKC,0.93,VWS V14.01,2013-01-12 00:44:00,
2013-01-11 19:49:00,53.0,47.7,29.89,SE,145,2.0,4.0,82,0.00,,SKC,0.93,VWS V14.01,2013-01-12 00:49:00,
2013-01-11 19:54:00,53.0,47.7,29.89,SE,146,3.0,5.0,82,0.00,,SKC,0.93,VWS V14.01,2013-01-12 00:54:00,
2013-01-11 19:59:00,52.9,47.9,29.89,SSE,149,2.0,5.0,83,0.00,,SKC,0.93,VWS V14.01,2013-01-12 00:59:00,
2013-01-11 20:04:00,52.7,47.7,29.89,SE,139,3.0,4.0,83,0.00,,SKC,0.93,VWS V14.01,2013-01-12 01:04:00,
2013-01-11 20:10:00,52.6,47.6,29.89,SE,139,2.0,4.0,83,0.00,,SKC,0.93,VWS V14.01,2013-01-12 01:10:00,
2013-01-11 20:15:00,52.5,47.8,29.89,SSE,150,2.0,4.0,84,0.00,,SKC,0.93,VWS V14.01,2013-01-12 01:15:00,
2013-01-11 20:20:00,52.3,47.6,29.89,SE,133,4.0,4.0,84,0.00,,SKC,0.93,VWS V14.01,2013-01-12 01:20:00,
2013-01-11 20:25:00,52.3,47.6,29.89,SE,142,2.0,4.0,84,0.00,,SKC,0.93,VWS V14.01,2013-01-12 01:25:00,
2013-01-11 20:30:00,52.2,47.5,29.89,SE,143,2.0,4.0,84,0.00,,SKC,0.93,VWS V14.01,2013-01-12 01:30:00,
2013-01-11 20:35:00,52.2,47.5,29.89,SE,140,2.0,2.0,84,0.00,,SKC,0.93,VWS V14.01,2013-01-12 01:35:00,
2013-01-11 20:40:00,52.1,47.4,29.89,SE,141,1.0,3.0,84,0.00,,SKC,0.93,VWS V14.01,2013-01-12 01:40:00,
2013-01-11 20:45:00,52.1,47.7,29.89,East,88,1.0,3.0,85,0.00,,SKC,0.93,VWS V14.01,2013-01-12 01:45:00,
2013-01-11 20:50:00,52.3,47.9,29.89,SSE,147,2.0,4.0,85,0.00,,SKC,0.93,VWS V14.01,2013-01-12 01:50:00,
2013-01-11 20:55:00,52.4,47.7,29.89,SSE,152,1.0,5.0,84,0.00,,SKC,0.93,VWS V14.01,2013-01-12 01:55:00,
2013-01-11 21:00:00,52.5,47.8,29.88,SE,145,3.0,5.0,84,0.00,,SKC,0.93,VWS V14.01,2013-01-12 02:00:00,
2013-01-11 21:05:00,52.4,47.7,29.88,SSE,152,3.0,4.0,84,0.00,,SKC,0.93,VWS V14.01,2013-01-12 02:05:00,
2013-01-11 21:10:00,52.4,48.0,29.88,SSE,159,1.0,4.0,85,0.00,,SKC,0.93,VWS V14.01,2013-01-12 02:10:00,
2013-01-11 21:15:00,52.4,48.0,29.89,SE,145,2.0,6.0,85,0.00,,SKC,0.93,VWS V14.01,2013-01-12 02:15:00,
2013-01-11 21:20:00,52.4,48.0,29.89,ESE,120,2.0,6.0,85,0.00,,SKC,0.93,VWS V14.01,2013-01-12 02:20:00,
2013-01-11 21:25:00,52.3,47.9,29.89,SSE,159,2.0,6.0,85,0.00,,SKC,0.93,VWS V14.01,2013-01-12 02:25:00,
2013-01-11 21:30:00,52.2,47.8,29.89,SSE,159,3.0,6.0,85,0.00,,SKC,0.93,VWS V14.01,2013-01-12 02:30:00,
2013-01-11 21:35:00,52.2,47.8,29.89,SE,146,1.0,4.0,85,0.00,,SKC,0.93,VWS V14.01,2013-01-12 02:35:00,
2013-01-11 21:40:00,52.2,47.8,29.89,SSE,156,1.0,4.0,85,0.00,,SKC,0.93,VWS V14.01,2013-01-12 02:40:00,
2013-01-11 21:46:00,52.1,47.7,29.89,SSE,150,2.0,4.0,85,0.00,,SKC,0.93,VWS V14.01,2013-01-12 02:46:00,
2013-01-11 21:51:00,51.8,47.4,29.89,SE,143,1.0,4.0,85,0.00,,SKC,0.93,VWS V14.01,2013-01-12 02:51:00,
2013-01-11 21:56:00,51.7,47.7,29.89,SE,142,3.0,4.0,86,0.00,,SKC,0.93,VWS V14.01,2013-01-12 02:56:00,
2013-01-11 22:01:00,51.6,47.6,29.89,South,186,1.0,3.0,86,0.00,,SKC,0.93,VWS V14.01,2013-01-12 03:01:00,
2013-01-11 22:06:00,51.5,47.5,29.89,SSE,158,3.0,3.0,86,0.00,,SKC,0.93,VWS V14.01,2013-01-12 03:06:00,
2013-01-11 22:11:00,51.6,47.6,29.89,SSE,148,3.0,3.0,86,0.00,,SKC,0.93,VWS V14.01,2013-01-12 03:11:00,
2013-01-11 22:16:00,51.6,47.6,29.89,SSE,148,3.0,3.0,86,0.00,,SKC,0.93,VWS V14.01,2013-01-12 03:16:00,
2013-01-11 22:21:00,51.6,47.6,29.89,SSE,148,3.0,3.0,86,0.00,,SKC,0.93,VWS V14.01,2013-01-12 03:21:00,
2013-01-11 22:26:00,51.6,47.6,29.89,SSE,148,3.0,3.0,86,0.00,,SKC,0.93,VWS V14.01,2013-01-12 03:26:00,
2013-01-11 22:31:00,51.6,47.6,29.89,SSE,148,3.0,3.0,86,0.00,,SKC,0.93,VWS V14.01,2013-01-12 03:31:00,
2013-01-11 22:36:00,51.6,47.6,29.89,SSE,148,3.0,3.0,86,0.00,,SKC,0.93,VWS V14.01,2013-01-12 03:36:00,
2013-01-11 22:41:00,51.6,47.6,29.89,SSE,148,3.0,3.0,86,0.00,,SKC,0.93,VWS V14.01,2013-01-12 03:41:00,
2013-01-11 22:46:00,51.6,47.6,29.89,SSE,148,3.0,3.0,86,0.00,,SKC,0.93,VWS V14.01,2013-01-12 03:46:00,
2013-01-11 22:51:00,51.6,47.6,29.89,SSE,148,3.0,3.0,86,0.00,,SKC,0.93,VWS V14.01,2013-01-12 03:51:00,
2013-01-11 22:56:00,51.6,47.6,29.89,SSE,148,3.0,3.0,86,0.00,,SKC,0.93,VWS V14.01,2013-01-12 03:56:00,
2013-01-11 23:01:00,51.6,47.6,29.89,SSE,148,3.0,3.0,86,0.00,,SKC,0.93,VWS V14.01,2013-01-12 04:01:00,
2013-01-11 23:07:00,51.6,47.6,29.89,SSE,148,3.0,3.0,86,0.00,,SKC,0.93,VWS V14.01,2013-01-12 04:07:00,
2013-01-11 23:12:00,51.6,47.6,29.89,SSE,148,3.0,3.0,86,0.00,,SKC,0.93,VWS V14.01,2013-01-12 04:12:00,
2013-01-11 23:17:00,51.6,47.6,29.89,SSE,148,3.0,3.0,86,0.00,,SKC,0.93,VWS V14.01,2013-01-12 04:17:00,
2013-01-11 23:22:00,51.6,47.6,29.89,SSE,148,3.0,3.0,86,0.00,,SKC,0.93,VWS V14.01,2013-01-12 04:22:00,
2013-01-11 23:27:00,51.6,47.6,29.89,SSE,148,3.0,3.0,86,0.00,,SKC,0.93,VWS V14.01,2013-01-12 04:27:00,
2013-01-11 23:32:00,51.6,47.6,29.89,SSE,148,3.0,3.0,86,0.00,,SKC,0.93,VWS V14.01,2013-01-12 04:32:00,
2013-01-11 23:37:00,51.6,47.6,29.89,SSE,148,3.0,3.0,86,0.00,,SKC,0.93,VWS V14.01,2013-01-12 04:37:00,
2013-01-11 23:42:00,51.6,47.6,29.89,SSE,148,3.0,3.0,86,0.00,,SKC,0.93,VWS V14.01,2013-01-12 04:42:00,
2013-01-11 23:47:00,51.6,47.6,29.88,SSE,148,3.0,3.0,86,0.00,,SKC,0.93,VWS V14.01,2013-01-12 04:47:00,
2013-01-11 23:52:00,51.6,47.6,29.88,SSE,148,3.0,3.0,86,0.00,,SKC,0.93,VWS V14.01,2013-01-12 04:52:00,
2013-01-11 23:57:00,51.6,47.6,29.88,SSE,148,3.0,3.0,86,0.00,,SKC,0.93,VWS V14.01,2013-01-12 04:57:00,